Regional Weather Roundup
Issued by NWS Wakefield, VA

Home | Current Version | Previous Version | Text Only | Print | Product List | Glossary Off
Versions: 1 2 3 4 5 6 7 8 9 10 11 12 13 14 15 16 17 18 19 20 21 22 23 24 25 26 27
000 ASUS41 KAKQ 251615 RWRAKQ REGIONAL WEATHER ROUNDUP NATIONAL WEATHER SERVICE WAKEFIELD VA 1200 PM EDT SAT MAR 25 2017 Note: "fair" indicates few or no clouds below 12,000 feet with no significant weather and/or obstructions to visibility. * = Denotes station may not report precipitation (e.g., rain,snow,etc.), thunder or fog. VAZ042-051-052>054-056-251700- NORTHERN VIRGINIA CITY SKY/WX TMP DP RH WIND PRES REMARKS WASH NATIONAL CLOUDY 67 51 56 S13 30.18F DULLES CLOUDY 71 50 47 S5 30.18F FORT BELVOIR MOSUNNY 73 49 43 S6 30.18F QUANTICO MOSUNNY 61 51 70 S14 30.19F FREDERICKSBRG* SUNNY 73 52 48 SW6 30.19F STAFFORD* SUNNY 72 50 45 SW9 30.23F WARRENTON MOSUNNY 75 47 37 S8 30.18F CULPEPER* MOSUNNY 73 52 47 SW6 30.19F MANASSAS* CLOUDY 73 52 47 SW6 30.18F LEESBURG* CLOUDY 73 55 53 CALM 30.19F WINCHESTER MOSUNNY 70 50 49 SW5 30.18F FRONT ROYAL* MOSUNNY 73 50 43 SW6 30.17F LURAY* MOSUNNY 72 54 53 SW8 30.20F $$ VAZ048-049-060>072-079>083-251700- CENTRAL AND SOUTH CENTRAL VIRGINIA CITY SKY/WX TMP DP RH WIND PRES REMARKS RICHMOND PTSUNNY 73 51 46 SW15 30.23F CHESTERFIELD* FAIR N/A N/A N/A W16 30.24F PETERSBURG* MOSUNNY 71 50 46 SW14G22 30.26F HANOVER SUNNY 73 48 41 SW14 30.23F TAPPAHANNOCK* SUNNY 72 36 26 S15G21 30.22F QUINTON* FAIR 71 52 50 SW6G20 30.23F CHARLOTTSVILLE SUNNY 75 50 41 S9 30.20F GORDONSVILLE* SUNNY 73 51 47 SW9 30.20F ORANGE* SUNNY 73 50 43 SW12 30.21F LOUISA* SUNNY 75 54 46 S8 30.20F BUMPASS* FAIR 72 50 46 W12G17 30.21F FARMVILLE* MOSUNNY 72 52 48 SW12G18 30.23F CREWE* FAIR 70 52 51 W10G20 30.25F FORT PICKETT* FAIR 72 44 37 SW17G24 30.26F CHASE CITY* FAIR 69 50 50 SW8G18 30.27F CLARKSVILLE* FAIR 68 52 56 SW13G21 30.28F SOUTH HILL* MOSUNNY 67 53 60 SW16G22 30.34F LAWRENCEVILLE* FAIR 68 51 54 W7 30.27F EMPORIA* CLOUDY 70 50 49 SW9G20 30.30S $$ VAZ088>098-251700- SOUTHEAST VIRGINIA CITY SKY/WX TMP DP RH WIND PRES REMARKS NORFOLK CLOUDY 71 51 49 SW15G24 30.26F VIRGINIA BEACH PTSUNNY 71 49 45 SW14G26 30.26F NORFOLK NAVAL CLOUDY 72 51 47 SW18G24 30.27F WEST POINT* CLOUDY 71 50 46 SW9 30.25F SALUDA* FAIR 70 53 54 SW7G18 30.22F NEWPORT NEWS CLOUDY 72 53 51 SW15 30.26F LANGLEY AFB PTSUNNY 71 53 53 SW23G29 30.25F FORT EUSTIS MOSUNNY 72 53 51 SW13G20 30.23F WILLIAMSBURG* MOSUNNY 73 54 49 W9G20 30.25F HR EXEC AP* FAIR 72 54 53 W12G25 30.25F FRANKLIN* MOSUNNY 71 51 49 SW14 30.29F US460-WAKEFLD CLOUDY 72 52 49 SW9G21 30.26F $$ VAZ020-022-025-037-045-251700- WEST CENTRAL AND SOUTHWEST VIRGINIA CITY SKY/WX TMP DP RH WIND PRES REMARKS STAUNTON* SUNNY 70 50 49 SW3 30.23F WAYNESBORO* SUNNY 69 51 52 W6 30.23F HOT SPRINGS VA SUNNY 61 41 48 W3 30.29F LYNCHBURG PTSUNNY 67 48 50 SW8 30.27F DANVILLE MOSUNNY 70 51 51 SW18G25 30.27F SOUTH BOSTON* FAIR 69 50 49 SW10G21 30.27F MARTINSVILLE SUNNY 70 49 46 SW6G17 30.29F ROANOKE CLOUDY 69 47 45 S7 30.26F BLACKSBURG MOSUNNY 65 48 53 SW6 30.30F DUBLIN* CLOUDY 65 47 52 SW6 30.29S MARION* MOSUNNY 65 47 53 CALM 30.30F HILLSVILLE* PTSUNNY 64 49 57 SW9 30.28F RICHLANDS* FAIR 66 47 49 CALM 30.26F WISE* SUNNY 66 43 42 S9 30.27S ABINGDON* CLOUDY 67 47 49 SW6 30.26F $$ MDZ021>025-VAZ099-100-251700- SOUTHERN MARYLAND AND THE DELMARVA PENINSULA CITY SKY/WX TMP DP RH WIND PRES REMARKS PATUXENT RIVER PTSUNNY 70 54 56 W18 30.19F BAY BRIDGE APT MOSUNNY 72 52 49 S5 30.17F LEONARDTOWN MOSUNNY 68 48 49 SW15 30.21S DOVER MOSUNNY 72 56 56 SW12 30.15F GEORGETOWN CLOUDY 70 50 49 W10 30.18F EASTON MOSUNNY 70 48 46 SW12 30.22F CAMBRIDGE SUNNY 68 52 56 SW7 30.19S SALISBURY PTSUNNY 66 51 58 W13 30.19F OCEAN CITY MOSUNNY 68 50 52 W12G20 30.19F WALLOPS ISLAND CLOUDY 67 52 58 W10G24 30.21F ACCOMACK* MOSUNNY 69 53 55 W18 30.22F $$ NCZ012>017-030>032-251700- NORTH CENTRAL AND EASTERN NORTH CAROLINA CITY SKY/WX TMP DP RH WIND PRES REMARKS ROANOKE RAPIDS FAIR 70 52 52 SW18 30.29F RALEIGH PTSUNNY 69 51 52 W14G22 30.32F ELIZABETH CITY MOSUNNY 72 53 51 SW14G23 30.30F AHOSKIE* N/A 71 52 52 CALM 30.30F EDENTON* MOSUNNY 71 52 50 SW12G18 30.32F CURRITUCK* MOSUNNY 71 51 49 W13G21 30.30F KILL DEVIL HLS NOT AVBL MANTEO MOSUNNY 68 50 52 W10G18 30.32F CAPE HATTERAS CLOUDY 71 51 49 SW13 30.35F TARBORO* NOT AVBL GOLDSBORO MOSUNNY 73 51 46 SW16 30.31F WASHINGTON MOSUNNY 72 51 48 SW14G21 30.33F GREENVILLE MOSUNNY 73 52 46 W14G20 30.32F NEW BERN MOSUNNY 73 52 47 W8 30.34F WILMINGTON CLOUDY 71 51 49 SW14 30.36F $$ VAZ048-251700- ELSEWHERE CITY SKY/WX TMP DP RH WIND PRES REMARKS HARRISBURG PA CLOUDY 62 47 57 W5 30.14F BALTIMORE CLOUDY 73 51 46 VRB5 30.17S ANNAPOLIS PTSUNNY 56 48 74 SE10 30.17F ANDREWS AFB PTSUNNY 74 50 42 W8 30.17F PHILADELPHIA CLOUDY 67 48 50 W10 30.16F HENDERSON NC MOSUNNY 66 49 54 SW14G21 30.29F GREENSBORO CLOUDY 67 51 56 SW15 30.30F ROCKY MOUNT MOSUNNY 72 54 53 SW10G20 30.31F $$ VAZ100-251700- MARINE STATION/POSITION TIME TEMP WIND PRES WAVE SWELL AIR SEA DIR/SP/G HT/PER HT/PER (UTC) (F) (DEG/KT/KT) (MB) (FT/S) (FT/S) CAPE MAY NJ 1542 59 43 240/ 3/ 3 1021.5F LEWES DE 1542 69 44 260/ 10/ 13 1021.5F OCEAN-CITY-INLET 1542 63 44 280/ 10/ 12 1022.8F WACHAPREAGUE VA 1542 68 52 250/ 8/ 15 1023.2F THOMAS POINT MD 1600 61 45 160/ 12/ 13 N/A GOOSES REEF MD 1600 57 45 210/ 6/ 6 1022.8 1/ 2 COVE POINT MD 1542 67 280/ 13/ 19 1022.7R SOLOMONS ISLAND 1542 64 46 250/ 10/ 14 N/A BISHOPS HEAD MD 1542 58 48 210/ 8/ 9 1023.1F PINEY POINT MD 1536 280/ 10/ 11 N/A POTOMAC MD 1600 57 47 290/ 10/ 10 1021.9 1 CAMBRIDGE MD 1542 67 45 210/ 6/ 10 1021.5F LEWISETTA VA 1542 65 48 270/ 16/ 19 1022.5F RAPPAHANNOCK LGT 1536 190/ 15/ 16 1024.2F STINGRAY PT 1550 62 260/ 16/ 19 1024.1F YORK RVR RNG VA 1542 64 270/ 18/ 19 1023.3F YORKTOWN VA 1542 68 48 240/ 18/ 25 1023.5F JAMESTOWN VA 1600 67 52 240/ 16/ 21 N/A 1 DOMINION TERM VA 1542 62 250/ 14/ 18 1024.8F KIPTOPEKE VA 1536 46 230/ 10/ 12 N/A CHES BAY BRIDGE 1536 62 48 240/ 18/ 19 1024.7F CAPE HENRY VA 1536 69 240/ 16/ 20 N/A WILLOUBY STN VA 1536 62 230/ 15/ 15 1025.6F S CRANEY ISL VA 1542 69 250/ 12/ 19 1024.8F CAPE HENRY BUOY 1542 48 N/A 2/ 6 CAPE CHARLES BUO 1551 47 N/A 2/ 5 OFFSHORE WE BUOY 1551 48 N/A 2/10 64NM E OF VA BCH 1550 53 49 220/ 12/ 14 1026.3F 3/ 5 2/ 5 DUCK PIER NC 1536 63 47 250/ 8/ 10 1026.2F 44100 DUCK FRF 1535 48 N/A 2/ 5 44056 DUCK FRF 1530 49 N/A 1/ 6 OREGON INLET NC 1536 58 55 190/ 13/ 14 1027.0F HATTERAS NC 1536 68 56 230/ 7/ 15 1027.7F DIAMOND SHLS NC 1550 69 76 270/ 14/ 17 1028.0F 3/ 6 2/10 CAPE LOOKOUT NC 1500 70 230/ 8/ 11 1028.3S $$

USA.gov is the U.S. government's official web portal to all federal, state and local government web resources and services.